Flag for U.S.A. Weather past 2 weeks in San Francisco, California, U.S.A.

Now
54 °F

Clear.


Feels Like: 49 °F
Forecast: 47 / 56 °F
Wind: 18 mph from Northwest

Location: San Francisco International Airport

Current Time: Dec 24, 2014 at 9:14:56 PM

Latest Report: Dec 24, 2014 at 7:56 PM


Visibility: 10 mi

Pressure: 30.03 "Hg

Humidity: 67%

Dew point: 43 °F

Location of San FranciscoLocation

Historic Weather in San Francisco — Graph

°F

San Francisco temperature yesterday

Maximum temperature yesterday: 66 °F (at 1:56 PM)
Minimum temperature yesterday: 52 °F (at 4:56 AM)
Average temperature yesterday: 58 °F

Past Weeks' High & Low Weather Summary

 TemperatureHumidityPressure
High66 °F (Dec 11, 2:56 AM)100% (Dec 9, 9:56 PM)30.32 "Hg (Dec 9, 9:56 PM)
Low49 °F (Dec 13, 3:56 AM)63% (Dec 23, 1:56 PM)29.51 "Hg (Dec 11, 6:56 AM)
Average57 °F91%30.04 "Hg
* Reported Dec 9 6:56 PM — Dec 24 6:56 PM, San Francisco, Weather by CustomWeather, © 2014

Note: Actual official high and low records may vary slightly from our data, if they occured in-between our weather recording intervals... More about our weather records

Advertising

San Francisco weather history for previous 24 hours

 ConditionsComfort  
Time TempWeatherWind HumidityBarometerVisibility
6:56 PM
Dec 24
54 °FPassing clouds.21 mph72%30.00 "Hg10 mi
5:56 PM55 °FPassing clouds.20 mph72%30.01 "Hg10 mi
4:56 PM55 °FPassing clouds.24 mph72%29.99 "Hg10 mi
3:56 PM56 °FScattered clouds.25 mph77%29.98 "Hg10 mi
2:56 PM56 °FLight rain. Broken clouds.25 mph87%29.98 "Hg10 mi
1:56 PM60 °FLight rain. Fog.18 mph93%29.97 "Hg1 mi
12:56 PM62 °FMostly cloudy.15 mph73%30.00 "Hg10 mi
12:03 PM61 °FBroken clouds.7 mph77%30.03 "Hg10 mi
11:56 AM61 °FPartly sunny.9 mph81%30.03 "Hg10 mi
10:56 AM60 °FMore clouds than sun.6 mph80%30.09 "Hg10 mi
9:56 AM59 °FOvercast.14 mph84%30.11 "Hg10 mi
9:04 AM59 °FLow clouds.17 mph88%30.08 "Hg10 mi
8:56 AM59 °FLow clouds.16 mph90%30.08 "Hg10 mi
7:56 AM58 °FLow clouds.8 mph93%30.06 "Hg10 mi
6:56 AM57 °FOvercast.7 mph96%30.06 "Hg10 mi
5:56 AM53 °FPassing clouds.5 mph100%30.07 "Hg10 mi
4:56 AM54 °FPassing clouds.3 mph100%30.07 "Hg10 mi
3:56 AM53 °FPassing clouds.5 mph100%30.09 "Hg10 mi
2:56 AM54 °FPassing clouds.3 mph100%30.10 "Hg10 mi
1:56 AM55 °FPassing clouds.6 mph100%30.10 "Hg10 mi
12:56 AM56 °FPassing clouds.7 mph100%30.10 "Hg10 mi
11:56 PM
Dec 23
57 °FPassing clouds.12 mph100%30.12 "Hg10 mi
10:56 PM57 °FPassing clouds.7 mph100%30.13 "Hg10 mi
9:56 PM56 °FPassing clouds.3 mph90%30.13 "Hg10 mi
Weather by CustomWeather, © 2014

See weather overviewHow to use our weather pages